Starlink 11539

operational
NORAD ID: 62987 Int'l Des: 2025-031 Owner: SPXS Country: US Constellation: starlink
LEOCIRCULAR

About Starlink 11539

Description loading...

Live Position

Loading 3D Globe...

Upcoming Passes

Altitude History

Altitude vs Time

uPlot chart will show altitude changes over time

Two-Line Element Set

1 62987U 25031G 26035.50399480 .00225726 00000-0 17081-2 0 9990
2 62987 43.0012 201.4484 0001907 269.6668 90.3981 15.70940477 57520
Epoch: Feb 4, 2026 • Age: 8 hours

Current Status

Altitude 357.6 km
Velocity 7.70 km/s
Sub-Earth Point -12.40°S, 50.6°W
Launch Date Feb 11, 2025
Age 0.9 years
Type internet

Technical Details

Classification Payload
Mass 960.00 kg
Dry Mass 910.00 kg
Total Mass 960.00 kg
Length 0.30 m
Diameter 4.10 m
Span 29.00 m
Shape Box + pan
Manufacturer SPXS
Bus Type Starlink V2MD
Phase Status In Orbit
Owner/State SPXS/US

Large Constellations

Loading constellations...